| time (UTC) | temp F | wind direction | speed knots | gust knots | rain 1hr in | rain 24hr in | rain mn in | humidity % | barometer mb |
| 20260508094545 | 44 | 0 | 0.0 | 0.0 | 0.00 | 0.00 | 0.00 | 82 | 1011.6 |
| 20260508093053 | 44 | 0 | 0.0 | 0.0 | 0.00 | 0.00 | 0.00 | 81 | 1011.6 |
| 20260508091552 | 45 | 0 | 0.0 | 0.9 | 0.00 | 0.00 | 0.00 | 80 | 1011.7 |
| 20260508090042 | 45 | 211 | 0.0 | 1.7 | 0.00 | 0.00 | 0.00 | 80 | 1011.8 |
| 20260508084545 | 45 | 0 | 0.0 | 0.9 | 0.00 | 0.00 | 0.00 | 78 | 1011.9 |
| 20260508083105 | 46 | 0 | 0.0 | 0.0 | 0.00 | 0.00 | 0.00 | 77 | 1012.0 |
| 20260508081551 | 46 | 0 | 0.0 | 0.0 | 0.00 | 0.00 | 0.00 | 77 | 1012.0 |
| 20260508080054 | 47 | 0 | 0.0 | 0.9 | 0.00 | 0.00 | 0.00 | 76 | 1012.0 |
| 20260508074550 | 47 | 0 | 0.0 | 1.7 | 0.00 | 0.00 | 0.00 | 75 | 1012.0 |
| 20260508073044 | 47 | 0 | 0.0 | 2.6 | 0.00 | 0.00 | 0.00 | 74 | 1012.0 |
| 20260508071543 | 47 | 255 | 0.9 | 2.6 | 0.00 | 0.00 | 0.00 | 72 | 1012.1 |
| 20260508070043 | 47 | 0 | 0.9 | 2.6 | 0.00 | 0.00 | 0.00 | 71 | 1012.2 |
| 20260508064544 | 47 | 258 | 0.9 | 1.7 | 0.00 | 0.00 | 0.00 | 70 | 1012.1 |
| 20260508063042 | 47 | 0 | 0.0 | 0.9 | 0.00 | 0.00 | 0.00 | 70 | 1012.0 |
| 20260508061543 | 47 | 0 | 0.0 | 0.9 | 0.00 | 0.00 | 0.00 | 70 | 1012.2 |
| 20260508060042 | 47 | 0 | 0.0 | 0.0 | 0.00 | 0.00 | 0.00 | 71 | 1012.2 |
| 20260508054545 | 47 | 0 | 0.0 | 0.0 | 0.00 | 0.00 | 0.00 | 71 | 1012.2 |
| 20260508053045 | 47 | 0 | 0.0 | 0.0 | 0.00 | 0.00 | 0.00 | 70 | 1012.4 |
| 20260508051541 | 47 | 0 | 0.0 | 0.0 | 0.00 | 0.00 | 0.00 | 70 | 1012.5 |
| 20260508050042 | 47 | 0 | 0.0 | 0.0 | 0.00 | 0.00 | 0.00 | 70 | 1012.7 |
| 20260508044545 | 47 | 0 | 0.0 | 0.0 | 0.00 | 0.00 | 0.00 | 70 | 1012.7 |
| 20260508043046 | 46 | 0 | 0.0 | 0.0 | 0.00 | 0.00 | 0.00 | 70 | 1012.6 |
| 20260508041544 | 46 | 0 | 0.0 | 0.0 | 0.00 | 0.00 | 0.00 | 71 | 1012.6 |
| 20260508040044 | 45 | 0 | 0.0 | 0.0 | 0.00 | 0.00 | 0.00 | 72 | 1012.7 |
| 20260508034547 | 45 | 0 | 0.0 | 1.7 | 0.00 | 0.00 | 0.00 | 72 | 1012.6 |
| 20260508033048 | 44 | 0 | 0.0 | 0.9 | 0.00 | 0.00 | 0.00 | 73 | 1012.8 |
| 20260508031545 | 44 | 0 | 0.0 | 0.0 | 0.00 | 0.00 | 0.00 | 75 | 1012.9 |
| 20260508030046 | 44 | 0 | 0.0 | 0.9 | 0.00 | 0.00 | 0.00 | 74 | 1012.9 |
| 20260508024541 | 44 | 0 | 0.0 | 0.0 | 0.00 | 0.00 | 0.00 | 72 | 1012.9 |
| 20260508023040 | 44 | 0 | 0.0 | 0.0 | 0.00 | 0.00 | 0.00 | 69 | 1012.9 |
| 20260508021549 | 45 | 0 | 0.0 | 0.0 | 0.00 | 0.00 | 0.00 | 67 | 1012.8 |
| 20260508020045 | 46 | 0 | 0.0 | 0.0 | 0.00 | 0.00 | 0.00 | 65 | 1012.7 |
| 20260508014543 | 47 | 0 | 0.0 | 0.0 | 0.00 | 0.00 | 0.00 | 62 | 1012.5 |
| 20260508013049 | 48 | 0 | 0.0 | 0.9 | 0.00 | 0.00 | 0.00 | 61 | 1012.4 |
| 20260508011547 | 49 | 0 | 0.0 | 0.0 | 0.00 | 0.00 | 0.00 | 57 | 1012.3 |
| 20260508010050 | 50 | 0 | 0.0 | 0.0 | 0.00 | 0.00 | 0.00 | 53 | 1012.3 |
| 20260508004546 | 51 | 0 | 0.0 | 0.0 | 0.00 | 0.00 | 0.00 | 50 | 1012.3 |
| 20260508003043 | 51 | 0 | 0.0 | 0.0 | 0.00 | 0.00 | 0.00 | 47 | 1012.3 |
| 20260508001542 | 52 | 0 | 0.0 | 0.9 | 0.00 | 0.00 | 0.00 | 47 | 1012.2 |
| 20260508000051 | 52 | 0 | 0.0 | 1.7 | 0.00 | 0.00 | 0.00 | 46 | 1012.1 |
| 20260507234545 | 53 | 312 | 0.9 | 4.3 | 0.00 | 0.00 | 0.00 | 45 | 1012.1 |
| 20260507233045 | 53 | 0 | 0.9 | 7.0 | 0.00 | 0.00 | 0.00 | 44 | 1011.9 |
| 20260507231547 | 53 | 276 | 1.7 | 8.7 | 0.00 | 0.00 | 0.00 | 44 | 1011.9 |
| 20260507230048 | 54 | 249 | 1.7 | 5.2 | 0.00 | 0.00 | 0.00 | 43 | 1012.0 |
| 20260507224548 | 54 | 277 | 1.7 | 7.0 | 0.00 | 0.00 | 0.00 | 43 | 1012.1 |
| 20260507223046 | 54 | 294 | 0.9 | 4.3 | 0.00 | 0.00 | 0.00 | 44 | 1012.0 |
| 20260507221547 | 54 | 283 | 1.7 | 7.0 | 0.00 | 0.00 | 0.00 | 42 | 1012.1 |
| 20260507220049 | 55 | 319 | 2.6 | 9.6 | 0.00 | 0.00 | 0.00 | 41 | 1012.0 |
| 20260507214605 | 55 | 301 | 1.7 | 12.2 | 0.00 | 0.00 | 0.00 | 41 | 1011.9 |
| 20260507213046 | 55 | 324 | 2.6 | 8.7 | 0.00 | 0.00 | 0.00 | 43 | 1011.8 |
| 20260507211551 | 55 | 34 | 2.6 | 9.6 | 0.00 | 0.00 | 0.00 | 48 | 1011.8 |
| 20260507210052 | 55 | 269 | 3.5 | 7.8 | 0.00 | 0.00 | 0.00 | 50 | 1011.8 |
| 20260507204541 | 54 | 333 | 1.7 | 7.0 | 0.00 | 0.00 | 0.00 | 52 | 1011.6 |
| 20260507203050 | 53 | 198 | 1.7 | 7.0 | 0.00 | 0.00 | 0.00 | 53 | 1011.7 |
| 20260507201545 | 53 | 265 | 0.9 | 5.2 | 0.00 | 0.00 | 0.00 | 54 | 1011.7 |
| 20260507200044 | 54 | 260 | 1.7 | 7.0 | 0.00 | 0.00 | 0.00 | 52 | 1011.7 |
| 20260507194612 | 55 | 274 | 1.7 | 8.7 | 0.00 | 0.00 | 0.00 | 51 | 1011.6 |
| 20260507193049 | 56 | 227 | 0.9 | 4.3 | 0.00 | 0.00 | 0.00 | 48 | 1011.7 |
| 20260507191547 | 57 | 271 | 0.9 | 5.2 | 0.00 | 0.00 | 0.00 | 46 | 1011.7 |
| 20260507190041 | 57 | 272 | 1.7 | 7.0 | 0.00 | 0.00 | 0.00 | 45 | 1011.9 |
| 20260507184548 | 57 | 329 | 0.9 | 3.5 | 0.00 | 0.00 | 0.00 | 51 | 1011.8 |
| 20260507183045 | 56 | 267 | 0.9 | 4.3 | 0.00 | 0.00 | 0.00 | 50 | 1011.8 |
| 20260507181543 | 56 | 0 | 0.9 | 7.0 | 0.00 | 0.00 | 0.00 | 53 | 1011.9 |
| 20260507180042 | 56 | 342 | 0.9 | 5.2 | 0.00 | 0.00 | 0.00 | 53 | 1011.9 |
| 20260507174550 | 56 | 333 | 0.9 | 3.5 | 0.00 | 0.00 | 0.00 | 50 | 1012.0 |
| 20260507173044 | 57 | 115 | 0.9 | 3.5 | 0.00 | 0.00 | 0.00 | 48 | 1012.1 |
| 20260507171550 | 57 | 259 | 1.7 | 7.0 | 0.00 | 0.00 | 0.00 | 45 | 1012.1 |
| 20260507170044 | 56 | 169 | 0.9 | 4.3 | 0.00 | 0.00 | 0.00 | 47 | 1012.2 |
| 20260507164543 | 56 | 90 | 2.6 | 6.1 | 0.00 | 0.00 | 0.00 | 51 | 1012.2 |
| 20260507163043 | 55 | 0 | 0.9 | 3.5 | 0.00 | 0.00 | 0.00 | 51 | 1012.3 |
| 20260507161549 | 55 | 321 | 0.9 | 3.5 | 0.00 | 0.00 | 0.00 | 54 | 1012.4 |
| 20260507160048 | 55 | 0 | 0.9 | 2.6 | 0.00 | 0.00 | 0.00 | 54 | 1012.6 |
| 20260507154546 | 56 | 262 | 0.9 | 2.6 | 0.00 | 0.00 | 0.00 | 48 | 1012.4 |
| 20260507153046 | 56 | 313 | 0.9 | 6.1 | 0.00 | 0.00 | 0.00 | 50 | 1012.3 |
| 20260507151547 | 56 | 262 | 0.9 | 3.5 | 0.00 | 0.00 | 0.00 | 49 | 1012.4 |
| 20260507150053 | 57 | 267 | 0.9 | 4.3 | 0.00 | 0.00 | 0.00 | 52 | 1012.5 |
| 20260507144543 | 57 | 283 | 0.9 | 3.5 | 0.00 | 0.00 | 0.00 | 55 | 1012.3 |
| 20260507143100 | 57 | 341 | 0.9 | 2.6 | 0.00 | 0.00 | 0.00 | 54 | 1012.4 |
| 20260507141552 | 56 | 311 | 0.0 | 2.6 | 0.00 | 0.00 | 0.00 | 57 | 1012.5 |
| 20260507140040 | 54 | 61 | 1.7 | 4.3 | 0.00 | 0.00 | 0.00 | 58 | 1012.5 |
| 20260507134544 | 54 | 126 | 0.0 | 3.5 | 0.00 | 0.00 | 0.00 | 65 | 1012.7 |
| 20260507133044 | 52 | 260 | 0.0 | 4.3 | 0.00 | 0.00 | 0.00 | 67 | 1012.9 |
| 20260507131603 | 51 | 181 | 0.0 | 2.6 | 0.00 | 0.00 | 0.00 | 70 | 1013.0 |
| 20260507130042 | 49 | 0 | 0.0 | 1.7 | 0.00 | 0.00 | 0.00 | 72 | 1012.9 |
| 20260507124545 | 47 | 0 | 0.0 | 3.5 | 0.00 | 0.00 | 0.00 | 76 | 1012.9 |
| 20260507123044 | 46 | 0 | 0.0 | 1.7 | 0.00 | 0.00 | 0.00 | 79 | 1012.9 |
| 20260507121544 | 44 | 0 | 0.0 | 1.7 | 0.00 | 0.00 | 0.00 | 83 | 1012.8 |
| 20260507120042 | 43 | 0 | 0.0 | 1.7 | 0.00 | 0.00 | 0.00 | 86 | 1012.7 |
| 20260507114545 | 41 | 0 | 0.9 | 4.3 | 0.00 | 0.00 | 0.00 | 90 | 1012.8 |
| 20260507113040 | 40 | 0 | 0.0 | 1.7 | 0.00 | 0.00 | 0.00 | 90 | 1012.5 |
| 20260507111547 | 40 | 0 | 0.0 | 0.0 | 0.00 | 0.00 | 0.00 | 89 | 1012.5 |
| 20260507110044 | 40 | 0 | 0.0 | 0.9 | 0.00 | 0.00 | 0.00 | 89 | 1012.4 |
| 20260507104544 | 40 | 0 | 0.0 | 0.0 | 0.00 | 0.00 | 0.00 | 89 | 1012.2 |
| 20260507103041 | 40 | 0 | 0.0 | 0.0 | 0.00 | 0.00 | 0.00 | 89 | 1012.0 |
| 20260507101544 | 40 | 0 | 0.0 | 0.0 | 0.00 | 0.00 | 0.00 | 89 | 1012.1 |
| 20260507100049 | 40 | 0 | 0.0 | 0.0 | 0.00 | 0.00 | 0.00 | 89 | 1012.1 |